Wind_Speed
15 16 16 13 13 13 13 13 13 12 10 8 7 7 8 7 6 6 7 7 8 9 7 11 11 14 14 14 13 12 11 10 16 21 15 14 14 15 15 16 19 21 22
16 15 12 11 12 12 12 12 11 9 7 6 6 8 7 6 5 6 8 7 8 11 10 14 15 14 14 12 12 13 13 13 16 18 17 14 15 15 15 16 19 20 21
14 12 11 11 11 11 10 10 8 6 6 6 7 7 5 5 6 7 7 6 10 7 8 9 13 14 14 17 15 12 13 16 18 19 16 15 15 15 17 18 18 19 21
12 11 11 10 10 8 9 7 5 6 7 8 7 5 5 4 5 5 6 6 3 6 6 7 8 16 16 22 20 15 15 16 17 17 18 17 16 19 18 17 19 22 18
11 10 9 8 7 7 7 5 6 7 8 8 6 5 4 4 5 5 5 3 3 4 4 7 11 17 17 13 15 17 18 18 17 16 18 18 20 19 18 18 21 17 18
9 8 7 6 6 6 5 5 7 9 9 8 7 5 3 4 4 5 4 2 2 4 5 6 9 16 17 15 20 18 16 13 15 13 16 18 18 16 17 16 17 19 24
7 6 5 7 7 5 4 7 8 9 9 10 8 4 4 5 3 4 4 2 3 2 7 7 7 18 16 14 18 19 19 20 17 12 16 16 12 14 18 18 20 20 18
7 7 7 7 5 4 6 8 7 10 11 10 7 5 5 5 4 2 1 1 1 1 3 7 11 19 20 16 17 21 23 22 21 19 20 13 16 14 17 15 23 20 20
9 10 9 6 4 6 8 8 7 8 11 9 7 6 5 5 3 2 1 0 2 3 4 3 4 13 11 22 19 21 22 23 24 24 23 18 16 13 18 18 23 23 28
12 12 10 6 6 7 8 8 8 8 9 9 7 6 6 5 3 2 1 2 1 2 3 4 9 10 14 14 22 23 22 22 23 24 29 23 20 15 20 25 19 29 25
14 14 11 9 7 7 8 7 7 7 7 8 8 8 8 6 3 2 3 3 1 2 4 6 8 11 11 16 23 24 24 24 23 24 21 26 19 21 29 28 25 28 27
16 14 13 11 9 8 8 7 5 6 8 9 9 10 9 6 4 2 0 1 1 1 5 9 6 9 12 13 18 25 28 29 24 18 22 23 20 33 30 31 29 34 27
16 15 14 12 9 7 6 5 4 5 7 12 12 11 10 7 4 2 1 1 1 2 7 7 6 9 14 19 21 22 25 30 26 21 25 22 31 33 29 24 32 31 28
14 13 14 12 9 6 4 3 4 4 7 13 16 11 10 8 5 4 2 2 4 7 10 7 11 14 15 19 21 20 21 27 24 25 28 27 31 26 30 32 31 27 25
14 13 13 12 9 6 4 1 2 2 4 10 17 15 12 10 7 3 0 3 8 10 10 11 13 13 14 21 24 24 27 27 26 28 26 30 27 26 30 29 25 22 18
14 12 12 11 8 6 6 5 5 5 7 8 13 12 9 6 4 2 5 7 13 12 12 12 13 14 16 20 22 26 29 31 33 28 27 24 24 29 27 25 22 20 18
14 14 14 13 10 8 8 7 6 7 6 8 9 9 9 6 4 4 5 6 12 16 13 15 12 14 16 17 17 21 29 31 26 27 26 21 29 26 25 23 21 20 17
16 16 15 13 12 10 8 8 7 7 8 9 10 10 10 8 9 10 9 10 13 20 16 14 15 14 16 19 18 20 24 23 23 25 26 29 28 26 24 22 20 18 19
18 17 17 15 13 11 10 9 9 9 11 9 11 14 14 13 13 12 12 15 16 16 15 15 17 16 18 20 18 17 20 21 22 26 27 26 25 24 23 23 22 22 21
18 16 15 15 14 12 11 10 10 10 10 11 11 14 16 15 13 10 10 12 13 13 14 14 14 15 17 22 20 17 21 23 23 23 23 23 23 23 23 22 22 22 22
20 18 16 14 13 13 12 10 10 10 10 10 10 11 12 13 12 11 11 10 10 10 10 11 13 15 15 16 18 19 20 22 22 21 22 22 22 22 22 23 23 23 25
23 20 18 16 14 12 13 12 10 10 9 9 9 9 9 9 10 10 9 9 9 9 9 10 10 11 13 15 16 18 19 20 21 21 22 23 24 24 24 26 27 28 29
24 23 21 18 16 15 13 12 12 11 10 10 10 9 9 8 8 8 8 8 8 9 10 11 11 12 12 13 14 15 17 17 18 20 21 23 25 26 27 28 29 31 33
27 25 24 22 20 18 17 16 14 13 12 11 10 9 9 10 10 10 9 9 9 10 10 10 10 11 12 13 14 16 17 18 20 22 23 25 26 28 29 31 32 33 34
23 24 25 25 25 24 22 21 21 20 19 18 16 15 15 15 15 16 16 16 16 16 16 16 15 15 16 16 16 16 16 17 19 20 23 25 27 28 30 32 33 33 35
24 22 18 17 23 24 24 22 21 20 20 19 19 19 19 19 19 20 20 21 21 21 21 22 22 22 23 24 24 25 25 25 26 26 27 30 31 32 34 35 35 36 37
Wind_Direction
215 227 240 234 245 266 270 265 265 259 251 250 245 240 235 229 246 261 271 273 264 263 251 210 213 205 203 206 225 207 192 196 182 169 177 184 194 194 196 191 184 188 186
215 230 221 237 263 268 264 265 255 247 244 241 229 224 221 234 257 262 264 271 259 272 256 228 208 200 202 204 196 190 194 192 178 174 173 181 182 183 183 178 178 177 184
221 207 229 258 263 260 258 248 235 233 233 221 215 217 222 247 265 261 267 263 274 286 254 203 207 208 196 181 175 186 189 190 189 179 188 177 180 180 177 174 172 182 182
200 225 255 258 258 251 241 228 230 227 219 214 204 208 234 254 270 260 249 239 287 277 262 212 204 188 189 196 187 185 190 186 188 183 182 185 184 177 176 183 183 191 173
215 247 251 253 239 227 225 225 221 218 206 204 202 215 224 250 257 243 233 260 303 8 286 204 185 180 185 197 179 187 186 179 186 189 189 186 185 180 178 169 174 189 178
235 242 245 227 217 219 223 215 207 206 202 201 207 204 208 242 233 227 192 239 319 328 33 220 186 184 186 186 191 188 188 188 194 189 188 181 178 179 184 170 163 164 174
232 227 205 205 205 220 230 205 200 204 199 192 200 189 205 209 216 222 232 298 3 27 16 185 171 182 185 180 181 185 176 170 171 172 160 143 165 191 199 179 174 155 171
210 189 194 193 200 227 208 188 191 199 189 180 182 174 192 200 196 225 259 3 7 56 315 47 156 161 171 171 168 166 164 164 160 160 160 169 149 152 149 172 170 162 166
186 181 184 176 207 192 178 174 183 183 173 175 175 178 187 199 194 188 299 112 82 108 56 108 126 198 165 166 167 165 163 156 155 157 155 162 161 151 154 151 162 163 158
180 173 167 172 168 167 167 169 175 174 172 176 173 173 175 170 167 182 202 164 57 78 123 142 134 164 164 177 174 166 163 160 163 164 154 153 161 163 162 155 147 154 153
173 168 168 166 149 145 143 152 173 171 175 180 175 170 163 153 135 167 164 147 56 63 123 146 148 147 141 168 175 177 170 166 162 164 159 159 161 155 152 154 156 164 153
168 169 170 161 151 141 123 124 142 176 188 188 181 178 171 159 149 125 155 353 113 65 126 150 143 165 163 165 163 178 183 178 173 167 165 163 161 159 161 158 166 154 164
166 173 172 173 165 154 143 155 172 170 194 198 190 184 190 188 195 224 276 320 184 141 126 139 145 147 159 155 158 159 172 184 181 185 177 163 163 173 177 179 167 164 170
167 177 180 180 185 183 180 198 210 211 209 197 192 188 191 194 209 233 279 301 166 154 153 149 142 135 140 161 163 158 174 173 187 184 177 169 169 168 172 169 167 168 173
166 178 183 184 186 183 181 113 94 153 165 183 186 192 193 188 199 202 174 132 141 151 157 145 141 136 139 140 149 155 163 170 176 174 171 176 175 169 167 167 171 172 178
168 174 178 168 160 155 139 117 86 100 152 160 184 189 186 181 184 182 150 142 149 147 148 146 143 135 142 147 144 150 155 161 168 164 157 160 167 166 168 170 173 180 187
167 179 174 159 146 139 129 127 114 103 123 164 171 171 169 169 160 137 117 143 156 152 149 149 152 148 152 153 151 151 157 165 174 168 170 170 168 170 172 177 184 190 197
169 179 168 155 143 135 129 134 134 118 118 128 142 150 151 145 134 121 100 119 144 155 156 147 151 147 155 160 157 161 163 160 163 169 171 168 171 180 186 190 197 205 213
173 183 170 160 156 146 138 128 122 119 114 123 137 140 137 133 136 125 112 116 132 141 145 149 150 148 158 165 172 169 172 174 173 174 175 179 184 190 196 203 209 215 223
175 180 183 172 165 155 147 140 130 122 119 115 126 137 140 133 130 132 125 119 122 135 149 154 154 156 164 174 175 173 177 178 180 184 190 195 200 205 211 217 222 227 234
176 178 180 180 178 162 156 152 147 141 134 132 136 146 151 152 150 148 145 142 142 142 143 146 161 165 166 168 180 185 184 190 195 199 205 211 216 219 223 229 234 240 244
178 182 184 178 175 172 162 157 159 159 159 157 153 154 159 165 168 170 170 168 166 166 169 174 178 179 183 190 193 194 197 202 207 212 218 224 229 233 236 240 243 247 251
186 184 187 186 177 173 169 165 160 164 172 178 179 179 178 181 182 184 187 189 188 190 191 191 193 199 207 213 217 220 222 224 227 231 234 237 240 243 246 249 252 255 258
191 191 189 189 190 186 177 169 164 163 161 162 167 178 189 196 200 203 210 218 223 222 218 215 215 219 223 226 229 231 231 233 236 239 242 244 248 251 253 256 259 263 266
205 201 196 195 193 190 188 187 182 179 178 178 176 175 179 186 194 202 207 210 215 221 226 230 230 230 232 236 238 239 241 244 248 251 252 254 255 257 258 261 264 267 268
217 199 204 207 213 208 202 203 207 206 205 204 201 201 201 202 203 207 213 217 220 224 227 230 232 234 235 235 235 234 233 234 236 241 245 250 252 255 258 261 263 266 268
Height
3040 3044 3045 3047 3049 3049 3049 3049 3050 3051 3052 3053 3053 3053 3054 3055 3056 3057 3058 3057 3057 3057 3056 3057 3058 3059 3061 3063 3066 3068 3071 3073 3071 3079 3084 3087 3090 3094 3097 3101 3105 3109 3113
3038 3040 3042 3044 3045 3045 3045 3046 3047 3048 3049 3050 3050 3051 3052 3054 3055 3056 3056 3056 3055 3053 3053 3052 3055 3056 3059 3061 3063 3066 3069 3072 3076 3079 3083 3086 3089 3093 3096 3101 3104 3109 3114
3035 3038 3040 3041 3041 3042 3042 3044 3045 3046 3047 3047 3048 3050 3051 3052 3053 3053 3054 3053 3053 3051 3050 3049 3050 3053 3057 3059 3062 3065 3068 3070 3074 3078 3082 3086 3090 3093 3097 3100 3105 3109 3113
3033 3036 3037 3037 3038 3039 3040 3041 3042 3043 3045 3046 3047 3048 3050 3051 3051 3051 3051 3052 3050 3047 3045 3046 3047 3051 3054 3057 3061 3065 3068 3070 3074 3079 3082 3086 3090 3093 3097 3101 3104 3107 3104
3031 3032 3033 3035 3035 3037 3038 3039 3040 3042 3043 3044 3046 3047 3049 3049 3049 3050 3051 3050 3048 3046 3044 3044 3046 3050 3053 3057 3060 3064 3067 3070 3075 3078 3081 3086 3090 3094 3097 3101 3105 3106 3112
3028 3029 3031 3032 3033 3034 3035 3037 3039 3040 3041 3043 3045 3047 3047 3048 3049 3050 3050 3049 3047 3045 3043 3042 3045 3048 3052 3056 3060 3063 3067 3072 3075 3079 3081 3086 3091 3095 3098 3101 3105 3109 3113
3026 3027 3028 3030 3032 3033 3034 3036 3038 3039 3041 3042 3044 3045 3046 3047 3048 3049 3049 3048 3047 3045 3044 3042 3044 3047 3051 3054 3057 3061 3065 3071 3076 3081 3085 3089 3093 3095 3097 3101 3106 3110 3114
3023 3025 3028 3029 3030 3032 3033 3035 3036 3038 3039 3041 3043 3045 3046 3047 3048 3049 3048 3047 3047 3046 3045 3043 3044 3047 3050 3055 3058 3062 3066 3071 3075 3080 3084 3090 3094 3096 3098 3102 3107 3111 3115
3023 3025 3027 3028 3030 3031 3032 3034 3035 3037 3039 3041 3042 3044 3046 3046 3047 3048 3047 3047 3047 3047 3046 3045 3045 3046 3049 3054 3059 3064 3068 3071 3074 3080 3085 3090 3096 3099 3101 3104 3106 3112 3117
3022 3024 3026 3028 3030 3030 3031 3033 3035 3037 3038 3041 3042 3043 3045 3046 3047 3047 3047 3047 3047 3047 3047 3046 3047 3047 3051 3054 3059 3064 3069 3073 3077 3080 3083 3089 3094 3098 3101 3107 3112 3116 3121
3021 3024 3026 3029 3030 3030 3031 3032 3034 3036 3038 3040 3041 3043 3045 3046 3046 3047 3047 3048 3047 3047 3046 3047 3047 3049 3052 3054 3059 3065 3071 3075 3078 3082 3085 3090 3093 3097 3102 3107 3113 3119 3124
3020 3024 3027 3029 3030 3031 3031 3033 3034 3035 3037 3039 3041 3043 3045 3045 3046 3047 3048 3047 3047 3047 3047 3048 3049 3050 3052 3055 3058 3063 3068 3074 3079 3083 3086 3090 3095 3098 3103 3108 3113 3117 3122
3020 3024 3027 3029 3031 3031 3032 3033 3034 3035 3036 3037 3040 3043 3044 3045 3046 3047 3047 3048 3047 3047 3047 3049 3050 3051 3053 3055 3059 3063 3068 3074 3080 3084 3087 3092 3097 3100 3104 3109 3114 3118 3123
3020 3023 3027 3029 3031 3032 3032 3033 3033 3033 3034 3036 3039 3042 3044 3045 3046 3047 3047 3047 3047 3048 3049 3050 3052 3053 3055 3057 3061 3065 3069 3075 3081 3085 3089 3093 3097 3100 3105 3110 3115 3120 3124
3019 3023 3026 3029 3030 3031 3031 3032 3032 3033 3033 3035 3038 3041 3042 3044 3046 3047 3047 3047 3047 3049 3051 3052 3053 3056 3058 3059 3063 3066 3071 3076 3081 3086 3090 3094 3098 3103 3108 3114 3118 3122 3125
3019 3023 3026 3028 3029 3030 3031 3032 3033 3033 3034 3036 3039 3041 3043 3045 3046 3046 3046 3047 3048 3051 3052 3054 3056 3059 3062 3064 3066 3069 3073 3078 3083 3088 3093 3097 3101 3106 3111 3115 3119 3122 3125
3019 3023 3026 3028 3029 3029 3030 3032 3034 3035 3035 3037 3040 3042 3044 3045 3047 3047 3047 3047 3049 3051 3054 3057 3060 3063 3066 3069 3072 3075 3079 3082 3086 3090 3095 3099 3103 3108 3112 3115 3119 3121 3124
3019 3023 3026 3027 3028 3030 3031 3033 3035 3036 3037 3038 3040 3042 3044 3047 3048 3049 3049 3049 3050 3053 3057 3060 3062 3065 3068 3072 3076 3079 3082 3085 3089 3092 3096 3100 3104 3108 3111 3114 3117 3120 3121
3019 3023 3025 3027 3029 3030 3032 3034 3036 3038 3039 3041 3041 3043 3046 3048 3051 3052 3053 3052 3054 3057 3059 3062 3065 3067 3070 3074 3078 3081 3084 3087 3091 3094 3097 3101 3104 3107 3110 3112 3114 3116 3118
3019 3023 3026 3028 3029 3031 3033 3035 3037 3039 3041 3043 3045 3046 3048 3050 3053 3055 3056 3057 3058 3060 3062 3065 3067 3070 3072 3075 3079 3082 3086 3089 3092 3095 3098 3100 3103 3106 3109 3111 3113 3114 3115
3018 3022 3025 3028 3030 3031 3033 3036 3038 3040 3043 3045 3047 3049 3051 3052 3054 3056 3058 3059 3061 3063 3065 3067 3069 3072 3074 3077 3080 3083 3086 3089 3092 3095 3097 3100 3102 3104 3106 3107 3108 3110 3110
3015 3020 3024 3027 3030 3032 3033 3035 3037 3040 3042 3045 3048 3050 3053 3054 3056 3058 3059 3061 3063 3065 3067 3069 3071 3073 3076 3078 3081 3083 3086 3088 3091 3093 3095 3097 3099 3101 3102 3103 3104 3104 3104
3014 3018 3022 3026 3029 3031 3033 3035 3037 3039 3041 3044 3047 3050 3052 3054 3057 3058 3060 3061 3063 3065 3067 3069 3071 3073 3075 3078 3080 3082 3085 3087 3089 3091 3092 3094 3095 3096 3097 3097 3098 3098 3098
3011 3015 3019 3023 3026 3029 3031 3034 3037 3039 3040 3042 3045 3048 3050 3052 3055 3056 3058 3061 3062 3064 3065 3067 3070 3072 3073 3075 3077 3079 3081 3083 3084 3085 3086 3087 3088 3089 3089 3089 3090 3091 3090
3010 3012 3016 3020 3023 3025 3028 3031 3033 3035 3037 3039 3041 3043 3046 3048 3050 3051 3053 3054 3056 3058 3060 3062 3065 3067 3068 3070 3072 3073 3075 3077 3078 3079 3079 3080 3080 3081 3081 3081 3081 3081 3080
3002 3008 3014 3018 3021 3024 3025 3028 3031 3033 3035 3037 3038 3040 3042 3044 3046 3048 3050 3052 3053 3055 3056 3057 3059 3060 3061 3062 3063 3064 3065 3066 3068 3069 3070 3070 3070 3071 3071 3071 3072 3071 3070